Regional Weather Roundup
Issued by NWS

Home | Current Version | Previous Version | Text Only | Print | Product List | Glossary Off
Versions: 1 2 3 4 5 6 7 8 9 10 11 12 13 14 15 16 17 18 19 20 21 22 23 24 25 26 27 28 29 30 31 32 33 34 35 36 37 38 39 40 41 42 43 44 45 46 47 48 49 50

541
ASUS43 KOAX 282302
RWRNE

WEATHER ROUNDUP FOR NEBRASKA
NATIONAL WEATHER SERVICE OMAHA NE
600 PM CDT FRI APR 28 2017

NOTES: SATELLITE DATA IS BEING USED TO AUGMENT CLOUD COVER ABOVE
       12000 FEET.
       "FAIR" INDICATES FEW OR NO CLOUDS BELOW 12,000 FEET WITH NO
       SIGNIFICANT WEATHER AND/OR OBSTRUCTIONS TO VISIBILITY.

  * THESE STATIONS DO NOT REPORT WEATHER SUCH AS RAIN...SNOW OR FOG.

NEZ001>004-019>022-054>056-290000-
NEBRASKA PANHANDLE

CITY           SKY/WX    TMP DP  RH WIND       PRES   REMARKS
SCOTTSBLUFF    LGT SNOW  34  31  88 NE10      29.99R VSB 1   WCI  26
ALLIANCE       CLOUDY    37  31  78 NE8       29.97R WCI  31
CHADRON        CLOUDY    43  30  60 NE8       30.00R
KIMBALL        LGT SNOW  32  32  98 E9        29.94R WCI  25
SIDNEY         CLOUDY    33  31  92 E15       29.94R FOG     WCI  23
$$

NEZ057>060-069>072-079>082-290000-
SOUTHWEST NEBRASKA

CITY           SKY/WX    TMP DP  RH WIND       PRES   REMARKS
NORTH PLATTE   CLOUDY    38  32  79 NE16      29.95R WCI  29
IMPERIAL       CLOUDY    38  33  82 NE18G25   29.92R WCI  28
LEXINGTON      CLOUDY    39  35  85 NE16      29.92R WCI  30
MCCOOK         CLOUDY    39  35  86 NE23      29.91R WCI  28
OGALLALA       CLOUDY    39  33  80 NE18      29.95R WCI  30
$$

NEZ005>010-023>029-035>040-094-290000-
NORTH CENTRAL NEBRASKA

CITY           SKY/WX    TMP DP  RH WIND       PRES   REMARKS
VALENTINE      PTSUNNY   49  22  34 NE17      29.96R
AINSWORTH      CLOUDY    46  27  49 NE17      29.97R
BROKEN BOW     CLOUDY    38  34  85 NE13      29.94R WCI  30
O`NEILL        CLOUDY    46  26  46 NE15G21   29.95R
ORD            CLOUDY    38  33  82 NE14      29.94R WCI  30
THEDFORD       CLOUDY    41  35  79 E8        29.97R
$$

NEZ041-046>049-061>064-073>077-083>087-290000-
SOUTH CENTRAL NEBRASKA

CITY           SKY/WX    TMP DP  RH WIND       PRES   REMARKS
GRAND ISLAND   LGT RAIN  37  37 100 N16       29.94R FOG     WCI  28
AURORA         CLOUDY    38  37  97 NE18      29.92R FOG     WCI  28
HASTINGS       LGT RAIN  38  36  92 NE18      29.91S FOG     WCI  28
HEBRON         CLOUDY    42  41  97 NE14G24   29.86S
HOLDREGE       CLOUDY    37  35  93 NE20      29.92R FOG     WCI  26
KEARNEY *      CLOUDY    37  34  87 NE16      29.93R WCI  28
YORK           MOSUNNY   39  39 100 NE20      29.92R FOG     WCI  30
$$

NEZ011>018-030>034-042>045-290000-
NORTHEAST NEBRASKA

CITY           SKY/WX    TMP DP  RH WIND       PRES   REMARKS
NORFOLK        CLOUDY    42  34  73 NE15G23   29.93R
ALBION         CLOUDY    42  35  75 NE14      29.95R
BLAIR          CLOUDY    40  39  96 N10       29.91R FOG     WCI  34
FREMONT        DRIZZLE   39  39 100 N6        29.94R WCI  35
TEKAMAH        CLOUDY    42  38  85 N12       29.94R
WAYNE          CLOUDY    45  35  69 NE13G18   29.94R
$$

NEZ050>053-065>068-078-088>093-290000-
SOUTHEAST NEBRASKA

CITY           SKY/WX    TMP DP  RH WIND       PRES   REMARKS
LINCOLN        CLOUDY    42  40  92 NE18      29.91S FOG
OMAHA EPPLEY   DRIZZLE   41  37  86 N15       29.91R FOG
BEATRICE       CLOUDY    42  40  93 NE12G25   29.86R
FALLS CITY     CLOUDY    44  42  93 NE12      29.83R
NEBRASKA CITY  CLOUDY    41  41 100 NE13      29.87R
PLATTSMOUTH    CLOUDY    40  38  90 N9        29.89R FOG     WCI  35
$$

NEZ044-045-051>053-067-290000-
OMAHA AREA

CITY           SKY/WX    TMP DP  RH WIND       PRES   REMARKS
OMAHA EPPLEY   DRIZZLE   41  37  86 N15       29.91R FOG
BLAIR          CLOUDY    40  39  96 N10       29.91R FOG     WCI  34
FREMONT        DRIZZLE   39  39 100 N6        29.94R WCI  35
MILLARD        DRIZZLE   43  41  93 N5        29.92R
OFFUTT AFB     CLOUDY    41  39  92 N7        29.89R
PLATTSMOUTH    CLOUDY    40  38  90 N9        29.89R FOG     WCI  35
WAHOO          RAIN      40  38  94 N14       29.93R WCI  32
$$




USA.gov is the U.S. government's official web portal to all federal, state and local government web resources and services.